Showing default

GEESAT 3-04, 61014

Orbit data source: Space-Track

GEESAT 3-04, 61014 is a payload satellite owned by GeeSpace (CN) in LEO that was launched on Thu, 05 Sep 2024 UTC via a CHANG ZHENG 6 launch vehicle from the Taiyaun Space Center, China (TSC). Payloads include a variety of satellites, spacecraft, and rockets equipped with specific instruments for various scientific and technological missions. These include communications satellites like Starlink; space stations such as the ISS; scientific satellites like the Hubble; Earth observation satellites from companies like Planet Labs, Umbra, and HawkEye 360; GPS; miniature CubeSats for education and research; and military/defense satellites.

Loading next visibility...
GEESAT 3-04 details
Identifier
61014, 2024-159D
Orbit
LEO
Last TLE update17 hours ago
Origin
Flag of CNGeeSpace (CN / PRC)
ManufacturerTaizhou Xingkong
MissionOperational spacecraft
Bus & MotorGEESAT1, Unknown motor
Mass130 kg wet, 130 kg dry
Launch date (UTC)
2024-09-05 (4 months ago)
Launch vehicle
CHANG ZHENG 6
Launch site
Taiyaun Space Center, China (TSC)
Object type
Payload
Rocket body
Debris
Shape & HBRUnknown
Radar Cross SectionMedium (>0.1 m² and <1 m²)

Expand to show TLE details & history

TLE from 17 hours ago
0 GEESAT 3-04
1 61014U 24159D   25014.77281457  .00078776  00000-0  11970-2 0  9991
2 61014  50.0007 304.4735 0018174  21.1275 339.0440 15.53637068 20123
Epoch: 2025-01-14T18:32Z
Definitive object data (Epoch: 2025-01-14T18:32:51.178Z)
Latitude-0°
Longitude-88.21445°
Altitude395.168 km
Speed7.681 km/s
True Right ascension20h 17m 53s
True Declination0° 00' 00"
Sunlit
Object was in daylight at TLE epoch
Visualization TLE readout
Latitude4.80361°
Longitude-87.85184°
Altitude394.143 km
Speed7.682 km/s
Apparent Right ascension21h 56m 02s
Apparent Declination-18° 58' 22"
Sunlit
Object is in daylight
Visualization observer readout
Local Sidereal Time12:13:24
Azimuth64.744° ENE
Elevation-53.853°
Doppler factor1
Orbital elements
Apogee altitude419.23 km
Perigee altitude394.568 km
Semi-major axis6,785.036 km
Eccentricity0.0018174
Inclination50.0007°
RAAN304.4735°
Arg. of periapsis21.1275°
True anomaly338.96936°
Mean anomaly339.044°
Eccentric anomaly339.00669°
Mean motion3.88343 °/min
BSTAR0.001197
Orbital period92.7 mins
Loading maneuver chart data...
Loading historical data...
Loading historical data...
Loading historical data...
Loading historical data...
Loading historical data...
Loading historical data...
Loading historical data...

GEESAT 3-04 Visibility forecast

Observer location: undefined°, undefined

Span
Click to sort rows by Start time (UTC) header in descending order
Start Az.
Max El. time (UTC)
Max El. Az.
Max El.
End time (UTC)
End Az.
4 mins2025-01-15 20:57:10.978Z173.376° S2025-01-15 20:59:10.978Z131.11° SE16.509°2025-01-15 21:01:10.978Z91.327° ESE
4 mins2025-01-15 22:34:10.978Z268.024° W2025-01-15 22:35:10.978Z309.036° NW37.481°2025-01-15 22:38:10.978Z46.224° ENE
4 mins2025-01-16 03:26:10.978Z336.688° NNW2025-01-16 03:27:10.978Z12.168° NNE31.98°2025-01-16 03:30:10.978Z96.853° ESE
|